SCP
0 0 0 0 0 0 0 0 0 0 0 0 0 0 0 0 0 0 0 0 0 0 0 0 0 0 0 0 0 0 0 0 0 0 0 0 0 0 0 0 0 0 0
0 0 0 0 0 0 0 0 0 0 0 0 0 0 0 0 0 0 0 0 0 0 0 0 0 0 0 0 0 0 0 0 0 0 0 0 0 0 0 0 0 0 0
0 0 0 0 0 0 0 0 0 0 0 0 0 0 0 0 0 0 0 0 0 0 0 0 0 0 0 0 0 0 0 0 0 0 0 0 0 0 0 0 0 0 0
0 0 0 0 0 0 0 0 0 0 0 0 0 0 0 0 0 0 0 0 0 0 0 0 0 0 0 0 0 0 0 0 0 0 0 0 0 0 0 0 0 0 0
0 0 0 0 0 0 0 0 0 0 0 0 0 0 0 0 0 0 0 0 0 0 0 0 0 0 0 0 0 0 0 0 0 0 0 0 0 0 0 0 0 0 0
0 0 0 0 0 0 0 0 0 0 0 0 0 0 0 0 0 0 0 0 0 0 0 0 0 0 0 0 0 0 0 0 0 0 0 0 0 0 0 0 0 0 0
0 0 0 0 0 0 0 0 0 0 0 0 0 0 0 0 0 0 0 0 0 0 0 0 0 0 0 0 0 0 0 0 0 0 0 0 0 0 0 0 0 0 0
0 0 0 0 0 0 0 0 0 0 0 0 0 0 0 0 0 0 0 0 0 0 0 0 0 0 0 0 0 0 0 0 0 0 0 0 0 0 0 0 0 0 0
0 0 0 0 0 0 0 0 0 0 0 0 0 0 0 0 0 0 0 0 0 0 0 0 0 0 0 0 0 0 0 0 0 0 0 0 0 0 0 0 0 0 0
0 0 0 0 0 0 0 0 0 0 0 0 0 0 0 0 0 0 0 0 0 0 0 0 0 0 0 0 0 0 0 0 0 0 0 0 0 0 0 0 0 0 0
0 0 0 0 0 0 0 0 0 0 0 0 0 0 0 0 0 0 0 0 0 0 0 0 0 0 0 0 0 0 0 0 0 0 0 0 0 0 0 0 0 0 0
0 0 0 0 0 0 0 0 0 0 0 0 0 0 0 0 0 0 0 0 0 0 0 0 0 0 0 0 0 0 0 0 0 0 0 0 0 0 0 0 0 0 0
0 0 0 0 0 0 0 0 0 0 0 0 0 0 0 0 0 0 0 0 0 0 0 0 0 0 0 0 0 0 0 0 0 0 0 0 0 0 0 0 0 0 0
0 0 0 0 0 0 0 0 0 0 0 0 0 0 0 0 0 0 0 0 0 0 0 0 0 0 0 0 0 0 0 0 0 0 0 0 0 0 0 0 0 0 0
0 0 0 0 0 0 0 0 0 0 0 0 0 0 0 0 0 0 0 0 0 0 0 0 0 0 0 0 0 0 0 0 0 0 0 0 0 0 0 0 0 0 0
0 0 0 0 0 0 0 0 0 0 0 0 0 0 0 0 0 0 0 0 0 0 0 0 0 0 0 0 0 0 0 0 0 0 0 0 0 0 0 0 0 0 0
0 0 0 0 0 0 0 0 0 0 0 0 0 0 0 0 0 0 0 0 0 0 0 0 0 0 0 0 0 0 0 0 0 0 0 0 0 0 0 0 0 0 0
0 0 0 0 0 0 0 0 0 0 0 0 0 0 0 0 0 0 0 0 0 0 0 0 0 0 0 0 0 0 0 0 0 0 0 0 0 0 0 0 0 0 0
0 0 0 0 0 0 0 0 0 0 0 0 0 0 0 0 0 0 0 0 0 0 0 0 0 0 0 0 0 0 0 0 0 0 0 0 0 0 0 0 0 0 0
0 0 0 0 0 0 0 0 0 0 0 0 0 0 0 0 0 0 0 0 0 0 0 0 0 0 0 0 0 0 0 0 0 0 0 0 0 0 0 0 0 0 0
0 0 0 0 0 0 0 0 0 0 0 0 0 0 0 0 0 0 0 0 0 0 0 0 0 0 0 0 0 0 0 0 0 0 0 0 0 0 0 0 0 0 0
0 0 0 0 0 0 0 0 0 0 0 0 0 0 0 0 0 0 0 0 0 0 0 0 0 0 0 0 0 0 0 0 0 0 0 0 0 0 0 0 0 0 0
0 0 0 0 0 0 0 0 0 0 0 0 0 0 0 0 0 0 0 0 0 0 0 0 0 0 0 0 0 0 0 0 0 0 0 0 0 0 0 0 0 0 0
0 0 0 0 0 0 0 0 0 0 0 0 0 0 0 0 0 0 0 0 0 0 0 0 0 0 0 0 0 0 0 0 0 0 0 0 0 0 0 0 0 0 0
0 0 0 0 0 0 0 0 0 0 0 0 0 0 0 0 0 0 0 0 0 0 0 0 0 0 0 0 0 0 0 0 0 0 0 0 0 0 0 0 0 0 0
0 0 0 0 0 0 0 0 0 0 0 0 0 0 0 0 0 0 0 0 0 0 0 0 0 0 0 0 0 0 0 0 0 0 0 0 0 0 0 0 0 0 0
Wind_Speed_500mb
20 22 22 25 22 19 22 22 24 20 25 27 21 17 17 19 20 23 26 24 21 19 17 14 14 14 16 15 21 22 28 41 42 41 18 17 20 19 17 19 21 24 25
19 23 30 32 28 26 26 27 27 24 23 24 20 18 19 21 21 25 24 22 22 19 16 21 22 15 16 15 15 19 30 37 34 37 17 17 17 17 20 23 23 23 24
31 33 36 33 30 29 30 25 25 24 22 26 23 25 25 26 22 22 22 23 25 25 21 27 26 23 9 12 14 19 37 37 37 34 16 19 14 14 18 21 21 24 24
36 40 37 33 32 32 34 30 18 14 16 19 23 23 22 17 14 16 20 26 23 26 21 19 26 24 17 14 12 25 32 36 26 17 18 16 10 9 11 17 18 18 19
37 37 34 29 26 24 17 11 9 10 18 18 17 13 11 13 16 19 17 22 21 24 32 28 25 24 27 28 21 18 33 15 17 15 13 12 10 10 13 16 16 19 22
30 26 20 13 9 6 8 10 12 14 15 16 16 9 14 18 21 13 22 25 32 37 28 21 19 25 23 26 27 30 11 15 17 16 15 13 13 10 14 19 21 22 25
18 10 5 4 5 7 10 13 13 14 14 13 9 12 14 14 17 18 24 31 34 29 25 25 26 26 24 22 23 24 22 17 14 14 14 12 13 9 18 21 22 23 24
4 2 4 5 7 8 10 12 13 12 13 16 12 13 16 21 30 32 30 28 30 36 29 24 23 22 21 22 24 25 23 20 16 16 15 14 17 18 20 21 21 23 24
6 6 6 6 7 10 12 13 13 13 13 13 15 16 12 17 18 31 31 31 28 29 37 30 24 24 24 23 23 23 23 23 21 18 12 14 17 20 20 22 23 23 26
10 7 5 5 9 11 14 14 14 14 14 14 14 16 23 30 21 16 25 29 33 32 34 37 28 26 25 24 21 21 24 25 25 23 21 22 21 21 22 23 23 23 26
9 5 3 6 9 11 12 13 14 15 15 15 16 17 20 23 27 25 31 29 32 33 33 30 30 27 25 21 18 18 22 25 28 25 24 27 29 28 23 22 22 23 27
9 3 4 6 9 10 11 12 12 12 14 16 18 21 22 23 25 25 28 30 32 36 38 35 34 39 30 25 22 23 25 27 29 29 29 33 31 30 27 24 22 24 26
6 4 5 6 7 8 9 11 14 15 16 18 21 23 25 28 30 31 31 33 31 34 32 35 34 37 32 25 23 24 25 25 28 29 34 34 34 33 30 25 26 26 27
8 7 6 5 6 9 12 14 16 19 21 23 25 27 29 31 32 32 31 30 31 29 31 35 32 34 28 24 24 23 22 21 25 29 34 31 29 29 27 27 28 28 28
12 10 6 5 8 11 13 16 19 23 25 27 28 29 31 31 31 31 30 27 24 23 23 29 31 31 25 23 24 24 23 24 24 30 36 34 30 30 32 31 31 31 33
15 10 5 6 9 12 17 21 24 26 28 29 30 31 31 32 32 32 32 32 30 28 25 28 29 30 25 23 24 25 26 26 27 32 33 31 31 31 30 30 30 31 32
15 11 9 8 12 17 21 24 27 29 31 31 32 33 33 33 34 35 34 34 32 28 27 26 24 22 20 22 27 25 25 25 27 29 29 28 30 30 29 30 31 33 32
19 15 11 10 14 19 23 27 29 30 30 31 32 33 33 34 35 35 35 33 30 25 21 22 19 17 22 26 23 24 26 28 28 29 28 27 29 30 29 32 32 33 32
22 16 13 14 18 22 25 27 29 29 29 31 32 33 33 32 32 33 32 31 27 22 17 14 18 23 23 22 21 24 26 28 28 27 26 27 28 28 30 32 33 33 33
24 19 15 15 20 24 26 29 29 30 31 32 33 32 31 31 30 30 30 27 23 17 16 17 18 19 20 21 23 23 23 26 27 25 25 29 28 27 31 35 35 35 37
27 20 14 17 22 26 28 30 32 32 30 31 31 32 31 29 30 28 25 20 16 18 17 19 20 19 20 22 25 28 29 31 31 23 20 30 28 25 32 36 37 36 39
30 19 13 18 25 28 31 33 35 33 32 32 30 32 31 31 29 26 19 21 15 18 19 20 20 20 21 23 26 29 33 35 33 33 39 30 30 25 36 41 41 36 38
32 22 17 20 26 32 36 36 37 33 31 31 29 31 32 31 29 27 22 18 18 17 21 21 20 21 22 24 28 30 32 35 38 40 44 42 32 32 36 42 40 28 50
36 26 23 25 29 36 40 40 42 36 31 30 28 31 30 30 30 26 23 22 20 19 19 20 20 21 24 26 29 31 33 35 39 41 43 45 42 43 41 43 38 29 55
41 34 29 31 35 41 44 45 46 37 33 31 30 29 29 30 30 28 26 25 22 22 21 20 21 23 28 30 29 34 35 38 41 42 37 41 51 55 50 44 27 56 59
45 40 37 39 42 46 49 49 47 42 37 34 33 31 31 29 31 31 27 27 24 23 23 22 24 26 28 31 33 34 37 38 39 37 37 50 52 57 44 33 61 57 58
Wind_Direction_500mb
289 290 292 291 298 301 307 300 308 306 299 300 303 295 292 296 297 291 290 305 313 312 306 329 356 6 1 7 349 335 317 318 316 320 336 346 343 354 15 23 23 21 19
276 283 286 286 293 286 288 285 290 288 291 295 294 290 296 296 287 303 299 305 309 299 290 305 316 324 341 345 352 336 325 325 329 331 15 26 30 23 28 30 27 27 28
288 298 303 294 284 281 281 288 289 288 288 293 296 294 294 294 289 283 293 307 311 290 296 296 293 295 331 347 330 323 311 314 317 324 21 37 31 11 29 26 26 25 24
284 290 291 288 288 288 285 278 278 283 294 280 279 288 290 292 275 286 302 303 309 306 312 309 309 293 271 291 326 318 314 312 329 32 34 35 19 7 11 19 23 20 20
285 288 292 298 300 304 306 317 301 273 271 283 284 282 273 289 297 308 295 309 303 306 304 295 287 280 283 281 298 316 307 354 28 37 38 45 8 353 6 11 16 17 19
290 296 301 317 319 319 337 315 297 289 282 278 284 269 283 288 287 246 292 295 300 300 300 297 288 284 284 279 280 290 1 28 23 15 30 37 24 2 16 12 13 12 12
291 304 316 301 319 322 310 302 298 287 281 276 277 290 290 276 254 260 281 290 302 308 300 300 302 299 299 297 294 296 308 327 355 14 20 20 21 339 8 4 4 6 4
285 274 281 299 315 316 326 333 327 310 283 273 249 261 279 275 267 273 280 279 288 301 301 294 291 291 291 291 292 295 298 307 329 346 13 17 14 10 6 6 3 4 6
233 249 277 313 323 340 345 341 339 334 316 292 274 250 265 253 283 283 278 272 275 283 292 294 289 289 291 294 299 301 303 304 307 316 339 20 10 8 6 2 3 360 2
224 240 275 319 344 345 346 348 348 344 340 331 312 286 269 269 273 278 284 276 275 273 282 291 286 288 291 296 299 302 305 311 316 319 312 312 320 355 360 360 359 359 355
220 232 302 341 340 345 347 353 355 353 348 339 330 319 306 291 280 268 289 278 279 274 274 279 289 293 297 299 300 303 309 313 314 318 318 317 326 327 334 358 1 357 353
210 232 311 329 339 349 355 355 351 346 342 335 328 321 314 305 296 287 281 282 275 276 275 275 284 296 298 299 304 305 306 306 309 313 311 310 321 322 335 353 358 355 354
207 250 291 321 341 350 349 345 346 342 334 327 323 319 315 310 306 302 295 287 281 280 273 273 278 289 291 297 303 306 308 306 306 305 304 319 319 320 326 345 352 353 351
218 245 273 300 338 346 344 340 337 336 335 331 328 323 319 315 311 309 305 297 287 278 276 272 275 282 284 294 307 313 314 315 315 306 309 310 312 320 323 324 342 344 346
225 242 259 315 334 333 331 334 336 335 333 329 326 323 321 317 313 310 307 302 293 290 285 275 266 284 284 297 307 308 309 306 306 305 316 319 320 318 319 322 327 330 332
230 233 249 285 307 321 331 335 332 329 328 328 326 323 320 318 316 314 311 307 302 292 276 284 281 280 285 297 303 307 309 311 309 309 312 314 313 317 319 325 325 323 327
228 229 240 279 319 331 328 327 329 331 327 323 323 323 321 320 319 317 317 316 313 308 295 290 281 279 282 298 300 305 310 307 309 310 309 311 313 318 319 318 323 328 331
229 233 256 302 319 323 327 329 328 321 319 324 325 324 324 323 322 320 317 316 317 315 305 291 281 274 291 288 300 308 312 315 315 313 307 311 315 313 315 320 326 325 326
233 239 266 298 318 326 327 321 314 317 322 324 324 322 320 319 319 318 319 319 315 310 306 296 291 280 282 292 305 312 317 316 315 309 300 313 311 307 312 321 323 320 319
231 243 272 309 324 322 313 310 314 317 319 321 319 317 319 320 317 316 313 311 304 305 312 303 293 285 289 300 309 316 314 315 316 314 300 310 312 305 314 317 319 315 311
235 248 288 318 314 306 306 311 308 309 313 312 314 316 316 315 314 315 311 305 302 304 303 299 296 293 297 311 316 323 329 327 325 317 300 312 314 300 308 316 316 310 311
236 249 280 301 304 305 307 305 305 306 308 311 312 314 312 311 312 314 304 297 289 292 294 298 295 300 306 314 321 326 328 328 334 328 322 326 317 310 314 315 317 314 320
240 246 267 293 303 305 300 300 298 300 301 304 307 309 304 306 307 307 300 283 277 282 294 293 294 301 308 317 321 325 327 329 328 328 324 325 320 317 318 318 317 312 330
242 245 262 283 296 294 295 296 294 293 293 294 299 301 295 298 298 295 285 272 275 287 288 288 292 301 308 316 320 322 326 330 328 324 325 321 324 320 323 323 318 319 329
243 248 259 274 285 288 290 291 292 289 286 285 289 289 288 293 289 282 269 268 276 285 285 285 293 301 307 315 318 322 328 327 327 327 326 323 327 324 326 328 319 331 328
245 246 256 268 276 284 287 288 289 287 281 279 281 279 285 284 277 274 259 265 273 277 280 287 295 301 305 310 316 322 324 326 329 333 327 327 328 331 329 325 324 329 326
Wind_Speed_850mb
20 22 22 25 22 19 22 22 24 20 25 27 21 17 17 19 20 23 26 24 21 19 17 14 14 14 16 15 21 22 28 41 42 41 18 17 20 19 17 19 21 24 25
19 23 30 32 28 26 26 27 27 24 23 24 20 18 19 21 21 25 24 22 22 19 16 21 22 15 16 15 15 19 30 37 34 37 17 17 17 17 20 23 23 23 24
31 33 36 33 30 29 30 25 25 24 22 26 23 25 25 26 22 22 22 23 25 25 21 27 26 23 9 12 14 19 37 37 37 34 16 19 14 14 18 21 21 24 24
36 40 37 33 32 32 34 30 18 14 16 19 23 23 22 17 14 16 20 26 23 26 21 19 26 24 17 14 12 25 32 36 26 17 18 16 10 9 11 17 18 18 19
37 37 34 29 26 24 17 11 9 10 18 18 17 13 11 13 16 19 17 22 21 24 32 28 25 24 27 28 21 18 33 15 17 15 13 12 10 10 13 16 16 19 22
30 26 20 13 9 6 8 10 12 14 15 16 16 9 14 18 21 13 22 25 32 37 28 21 19 25 23 26 27 30 11 15 17 16 15 13 13 10 14 19 21 22 25
18 10 5 4 5 7 10 13 13 14 14 13 9 12 14 14 17 18 24 31 34 29 25 25 26 26 24 22 23 24 22 17 14 14 14 12 13 9 18 21 22 23 24
4 2 4 5 7 8 10 12 13 12 13 16 12 13 16 21 30 32 30 28 30 36 29 24 23 22 21 22 24 25 23 20 16 16 15 14 17 18 20 21 21 23 24
6 6 6 6 7 10 12 13 13 13 13 13 15 16 12 17 18 31 31 31 28 29 37 30 24 24 24 23 23 23 23 23 21 18 12 14 17 20 20 22 23 23 26
10 7 5 5 9 11 14 14 14 14 14 14 14 16 23 30 21 16 25 29 33 32 34 37 28 26 25 24 21 21 24 25 25 23 21 22 21 21 22 23 23 23 26
9 5 3 6 9 11 12 13 14 15 15 15 16 17 20 23 27 25 31 29 32 33 33 30 30 27 25 21 18 18 22 25 28 25 24 27 29 28 23 22 22 23 27
9 3 4 6 9 10 11 12 12 12 14 16 18 21 22 23 25 25 28 30 32 36 38 35 34 39 30 25 22 23 25 27 29 29 29 33 31 30 27 24 22 24 26
6 4 5 6 7 8 9 11 14 15 16 18 21 23 25 28 30 31 31 33 31 34 32 35 34 37 32 25 23 24 25 25 28 29 34 34 34 33 30 25 26 26 27
8 7 6 5 6 9 12 14 16 19 21 23 25 27 29 31 32 32 31 30 31 29 31 35 32 34 28 24 24 23 22 21 25 29 34 31 29 29 27 27 28 28 28
12 10 6 5 8 11 13 16 19 23 25 27 28 29 31 31 31 31 30 27 24 23 23 29 31 31 25 23 24 24 23 24 24 30 36 34 30 30 32 31 31 31 33
15 10 5 6 9 12 17 21 24 26 28 29 30 31 31 32 32 32 32 32 30 28 25 28 29 30 25 23 24 25 26 26 27 32 33 31 31 31 30 30 30 31 32
15 11 9 8 12 17 21 24 27 29 31 31 32 33 33 33 34 35 34 34 32 28 27 26 24 22 20 22 27 25 25 25 27 29 29 28 30 30 29 30 31 33 32
19 15 11 10 14 19 23 27 29 30 30 31 32 33 33 34 35 35 35 33 30 25 21 22 19 17 22 26 23 24 26 28 28 29 28 27 29 30 29 32 32 33 32
22 16 13 14 18 22 25 27 29 29 29 31 32 33 33 32 32 33 32 31 27 22 17 14 18 23 23 22 21 24 26 28 28 27 26 27 28 28 30 32 33 33 33
24 19 15 15 20 24 26 29 29 30 31 32 33 32 31 31 30 30 30 27 23 17 16 17 18 19 20 21 23 23 23 26 27 25 25 29 28 27 31 35 35 35 37
27 20 14 17 22 26 28 30 32 32 30 31 31 32 31 29 30 28 25 20 16 18 17 19 20 19 20 22 25 28 29 31 31 23 20 30 28 25 32 36 37 36 39
30 19 13 18 25 28 31 33 35 33 32 32 30 32 31 31 29 26 19 21 15 18 19 20 20 20 21 23 26 29 33 35 33 33 39 30 30 25 36 41 41 36 38
32 22 17 20 26 32 36 36 37 33 31 31 29 31 32 31 29 27 22 18 18 17 21 21 20 21 22 24 28 30 32 35 38 40 44 42 32 32 36 42 40 28 50
36 26 23 25 29 36 40 40 42 36 31 30 28 31 30 30 30 26 23 22 20 19 19 20 20 21 24 26 29 31 33 35 39 41 43 45 42 43 41 43 38 29 55
41 34 29 31 35 41 44 45 46 37 33 31 30 29 29 30 30 28 26 25 22 22 21 20 21 23 28 30 29 34 35 38 41 42 37 41 51 55 50 44 27 56 59
45 40 37 39 42 46 49 49 47 42 37 34 33 31 31 29 31 31 27 27 24 23 23 22 24 26 28 31 33 34 37 38 39 37 37 50 52 57 44 33 61 57 58
Wind_Direction_850mb
289 290 292 291 298 301 307 300 308 306 299 300 303 295 292 296 297 291 290 305 313 312 306 329 356 6 1 7 349 335 317 318 316 320 336 346 343 354 15 23 23 21 19
276 283 286 286 293 286 288 285 290 288 291 295 294 290 296 296 287 303 299 305 309 299 290 305 316 324 341 345 352 336 325 325 329 331 15 26 30 23 28 30 27 27 28
288 298 303 294 284 281 281 288 289 288 288 293 296 294 294 294 289 283 293 307 311 290 296 296 293 295 331 347 330 323 311 314 317 324 21 37 31 11 29 26 26 25 24
284 290 291 288 288 288 285 278 278 283 294 280 279 288 290 292 275 286 302 303 309 306 312 309 309 293 271 291 326 318 314 312 329 32 34 35 19 7 11 19 23 20 20
285 288 292 298 300 304 306 317 301 273 271 283 284 282 273 289 297 308 295 309 303 306 304 295 287 280 283 281 298 316 307 354 28 37 38 45 8 353 6 11 16 17 19
290 296 301 317 319 319 337 315 297 289 282 278 284 269 283 288 287 246 292 295 300 300 300 297 288 284 284 279 280 290 1 28 23 15 30 37 24 2 16 12 13 12 12
291 304 316 301 319 322 310 302 298 287 281 276 277 290 290 276 254 260 281 290 302 308 300 300 302 299 299 297 294 296 308 327 355 14 20 20 21 339 8 4 4 6 4
285 274 281 299 315 316 326 333 327 310 283 273 249 261 279 275 267 273 280 279 288 301 301 294 291 291 291 291 292 295 298 307 329 346 13 17 14 10 6 6 3 4 6
233 249 277 313 323 340 345 341 339 334 316 292 274 250 265 253 283 283 278 272 275 283 292 294 289 289 291 294 299 301 303 304 307 316 339 20 10 8 6 2 3 360 2
224 240 275 319 344 345 346 348 348 344 340 331 312 286 269 269 273 278 284 276 275 273 282 291 286 288 291 296 299 302 305 311 316 319 312 312 320 355 360 360 359 359 355
220 232 302 341 340 345 347 353 355 353 348 339 330 319 306 291 280 268 289 278 279 274 274 279 289 293 297 299 300 303 309 313 314 318 318 317 326 327 334 358 1 357 353
210 232 311 329 339 349 355 355 351 346 342 335 328 321 314 305 296 287 281 282 275 276 275 275 284 296 298 299 304 305 306 306 309 313 311 310 321 322 335 353 358 355 354
207 250 291 321 341 350 349 345 346 342 334 327 323 319 315 310 306 302 295 287 281 280 273 273 278 289 291 297 303 306 308 306 306 305 304 319 319 320 326 345 352 353 351
218 245 273 300 338 346 344 340 337 336 335 331 328 323 319 315 311 309 305 297 287 278 276 272 275 282 284 294 307 313 314 315 315 306 309 310 312 320 323 324 342 344 346
225 242 259 315 334 333 331 334 336 335 333 329 326 323 321 317 313 310 307 302 293 290 285 275 266 284 284 297 307 308 309 306 306 305 316 319 320 318 319 322 327 330 332
230 233 249 285 307 321 331 335 332 329 328 328 326 323 320 318 316 314 311 307 302 292 276 284 281 280 285 297 303 307 309 311 309 309 312 314 313 317 319 325 325 323 327
228 229 240 279 319 331 328 327 329 331 327 323 323 323 321 320 319 317 317 316 313 308 295 290 281 279 282 298 300 305 310 307 309 310 309 311 313 318 319 318 323 328 331
229 233 256 302 319 323 327 329 328 321 319 324 325 324 324 323 322 320 317 316 317 315 305 291 281 274 291 288 300 308 312 315 315 313 307 311 315 313 315 320 326 325 326
233 239 266 298 318 326 327 321 314 317 322 324 324 322 320 319 319 318 319 319 315 310 306 296 291 280 282 292 305 312 317 316 315 309 300 313 311 307 312 321 323 320 319
231 243 272 309 324 322 313 310 314 317 319 321 319 317 319 320 317 316 313 311 304 305 312 303 293 285 289 300 309 316 314 315 316 314 300 310 312 305 314 317 319 315 311
235 248 288 318 314 306 306 311 308 309 313 312 314 316 316 315 314 315 311 305 302 304 303 299 296 293 297 311 316 323 329 327 325 317 300 312 314 300 308 316 316 310 311
236 249 280 301 304 305 307 305 305 306 308 311 312 314 312 311 312 314 304 297 289 292 294 298 295 300 306 314 321 326 328 328 334 328 322 326 317 310 314 315 317 314 320
240 246 267 293 303 305 300 300 298 300 301 304 307 309 304 306 307 307 300 283 277 282 294 293 294 301 308 317 321 325 327 329 328 328 324 325 320 317 318 318 317 312 330
242 245 262 283 296 294 295 296 294 293 293 294 299 301 295 298 298 295 285 272 275 287 288 288 292 301 308 316 320 322 326 330 328 324 325 321 324 320 323 323 318 319 329
243 248 259 274 285 288 290 291 292 289 286 285 289 289 288 293 289 282 269 268 276 285 285 285 293 301 307 315 318 322 328 327 327 327 326 323 327 324 326 328 319 331 328
245 246 256 268 276 284 287 288 289 287 281 279 281 279 285 284 277 274 259 265 273 277 280 287 295 301 305 310 316 322 324 326 329 333 327 327 328 331 329 325 324 329 326